Time,TemperatureF,DewpointF,PressureIn,WindDirection,WindDirectionDegrees,WindSpeedMPH,WindSpeedGustMPH,Humidity,HourlyPrecipIn,Conditions,Clouds,dailyrainin,SoftwareType,DateUTC
2013-09-16 00:13:00,84.0,66.0,29.92,SSE,157,0.0,0.0,55,0.00,,,0.00,,2013-09-16 04:13:00,
2013-09-16 00:24:00,84.0,67.0,30.00,SSE,156,0.0,0.0,56,0.00,,,0.00,,2013-09-16 04:24:00,
2013-09-16 00:54:00,83.0,66.0,30.01,SSE,157,0.0,0.0,57,0.00,,,0.00,,2013-09-16 04:54:00,
2013-09-16 01:13:00,82.0,66.0,30.01,SSE,157,0.0,0.0,59,0.00,,,0.00,,2013-09-16 05:13:00,
2013-09-16 01:22:00,82.0,66.0,30.01,SSE,157,0.0,0.0,59,0.00,,,0.00,,2013-09-16 05:22:00,
2013-09-16 01:52:00,81.0,66.0,30.02,SSE,157,0.0,0.0,61,0.00,,,0.00,,2013-09-16 05:52:00,
2013-09-16 02:12:00,80.0,66.0,30.02,SSE,157,0.0,0.0,63,0.00,,,0.00,,2013-09-16 06:12:00,
2013-09-16 02:22:00,80.0,66.0,30.02,SSE,157,0.0,0.0,63,0.00,,,0.00,,2013-09-16 06:22:00,
2013-09-16 02:52:00,79.0,65.0,30.02,SSE,156,0.0,0.0,63,0.00,,,0.00,,2013-09-16 06:52:00,
2013-09-16 03:11:00,79.0,66.0,30.03,SSE,157,0.0,0.0,65,0.00,,,0.00,,2013-09-16 07:11:00,
2013-09-16 03:22:00,79.0,66.0,29.90,SSE,157,0.0,0.0,65,0.00,,,0.00,,2013-09-16 07:22:00,
2013-09-16 03:52:00,78.0,66.0,29.91,SSE,157,0.0,0.0,66,0.00,,,0.00,,2013-09-16 07:52:00,
2013-09-16 04:22:00,77.0,66.0,29.88,SSE,157,0.0,0.0,68,0.00,,,0.00,,2013-09-16 08:22:00,
2013-09-16 04:52:00,77.0,67.0,29.86,SSE,157,0.0,0.0,71,0.00,,,0.00,,2013-09-16 08:52:00,
2013-09-16 05:12:00,76.0,66.0,29.88,SSE,157,0.0,0.0,72,0.00,,,0.00,,2013-09-16 09:12:00,
2013-09-16 05:22:00,76.0,67.0,29.31,SSE,157,0.0,0.0,73,0.00,,,0.00,,2013-09-16 09:22:00,
2013-09-16 05:43:00,75.0,67.0,30.02,SSE,157,0.0,0.0,75,0.00,,,0.00,,2013-09-16 09:43:00,
2013-09-16 05:53:00,75.0,67.0,29.95,SSE,157,0.0,0.0,75,0.00,,,0.00,,2013-09-16 09:53:00,
2013-09-16 06:12:00,74.0,66.0,30.02,SSE,157,0.0,0.0,76,0.00,,,0.00,,2013-09-16 10:12:00,
2013-09-16 06:23:00,74.0,66.0,29.83,SSE,157,0.0,0.0,77,0.00,,,0.00,,2013-09-16 10:23:00,
2013-09-16 06:53:00,74.0,67.0,29.95,SSE,157,0.0,0.0,78,0.00,,,0.00,,2013-09-16 10:53:00,
2013-09-16 07:12:00,73.0,66.0,29.99,SSE,157,0.0,0.0,79,0.00,,,0.00,,2013-09-16 11:12:00,
2013-09-16 07:22:00,73.0,66.0,30.01,SSE,157,0.0,0.0,79,0.00,,,0.00,,2013-09-16 11:22:00,
2013-09-16 07:42:00,73.0,66.0,30.04,SSE,157,0.0,0.0,79,0.00,,,0.00,,2013-09-16 11:42:00,
2013-09-16 07:52:00,73.0,66.0,30.04,SSE,157,0.0,0.0,79,0.00,,,0.00,,2013-09-16 11:52:00,
2013-09-16 08:12:00,73.0,66.0,29.41,SSE,157,0.0,0.0,79,0.00,,,0.00,,2013-09-16 12:12:00,
2013-09-16 08:22:00,73.0,66.0,29.85,SSE,157,0.0,0.0,79,0.00,,,0.00,,2013-09-16 12:22:00,
2013-09-16 08:52:00,73.0,66.0,30.07,WSW,245,0.0,2.0,80,0.00,,,0.00,,2013-09-16 12:52:00,
2013-09-16 09:11:00,73.0,67.0,29.93,WSW,245,0.0,1.0,81,0.00,,,0.00,,2013-09-16 13:11:00,
2013-09-16 09:21:00,73.0,67.0,29.93,WSW,245,0.0,0.0,81,0.00,,,0.00,,2013-09-16 13:21:00,
2013-09-16 09:52:00,74.0,69.0,29.96,WSW,245,0.0,1.0,85,0.00,,,0.00,,2013-09-16 13:52:00,
2013-09-16 10:11:00,75.0,71.0,29.85,WSW,243,0.0,3.0,86,0.01,,,0.01,,2013-09-16 14:11:00,
2013-09-16 10:21:00,75.0,71.0,29.97,WSW,243,0.0,1.0,87,0.01,,,0.01,,2013-09-16 14:21:00,
2013-09-16 10:52:00,78.0,73.0,29.83,WSW,242,0.0,2.0,84,0.01,,,0.01,,2013-09-16 14:52:00,
2013-09-16 11:12:00,79.0,73.0,29.43,WSW,245,0.0,5.0,81,0.00,,,0.01,,2013-09-16 15:12:00,
2013-09-16 11:22:00,80.0,73.0,29.64,WSW,244,0.0,3.0,80,0.00,,,0.01,,2013-09-16 15:22:00,
2013-09-16 11:43:00,81.0,73.0,29.95,WSW,244,0.0,2.0,76,0.00,,,0.01,,2013-09-16 15:43:00,
2013-09-16 11:53:00,82.0,72.0,29.95,WSW,248,1.0,3.0,72,0.00,,,0.01,,2013-09-16 15:53:00,
2013-09-16 12:23:00,86.0,72.0,29.01,SSE,150,0.0,3.0,63,0.00,,,0.01,,2013-09-16 16:23:00,
2013-09-16 12:43:00,89.0,71.0,29.58,SSE,159,0.0,3.0,56,0.00,,,0.01,,2013-09-16 16:43:00,
2013-09-16 12:52:00,90.0,71.0,29.58,South,177,0.0,3.0,53,0.00,,,0.01,,2013-09-16 16:52:00,
2013-09-16 13:12:00,90.0,71.0,29.71,SSE,159,0.0,3.0,54,0.00,,,0.01,,2013-09-16 17:12:00,
2013-09-16 13:23:00,91.0,71.0,29.71,ESE,107,0.0,5.0,52,0.00,,,0.01,,2013-09-16 17:23:00,
2013-09-16 13:53:00,93.0,71.0,29.71,SE,141,1.0,6.0,49,0.00,,,0.01,,2013-09-16 17:53:00,
2013-09-16 14:12:00,93.0,70.0,29.49,SSE,161,2.0,5.0,48,0.00,,,0.01,,2013-09-16 18:12:00,
2013-09-16 14:22:00,92.0,71.0,29.65,SE,135,0.0,3.0,51,0.00,,,0.01,,2013-09-16 18:22:00,
2013-09-16 14:42:00,91.0,69.0,28.06,SE,143,0.0,5.0,49,0.00,,,0.01,,2013-09-16 18:42:00,
2013-09-16 14:52:00,92.0,69.0,28.06,SSE,152,1.0,6.0,48,0.00,,,0.01,,2013-09-16 18:52:00,
2013-09-16 15:11:00,92.0,69.0,27.75,SSE,152,1.0,5.0,47,0.00,,,0.01,,2013-09-16 19:11:00,
2013-09-16 15:22:00,92.0,68.0,27.75,SSE,165,2.0,5.0,46,0.00,,,0.01,,2013-09-16 19:22:00,
2013-09-16 15:53:00,92.0,67.0,27.75,SSE,150,1.0,5.0,44,0.00,,,0.01,,2013-09-16 19:53:00,
2013-09-16 16:11:00,92.0,67.0,28.61,SE,143,2.0,6.0,44,0.00,,,0.01,,2013-09-16 20:11:00,
2013-09-16 16:22:00,92.0,66.0,28.61,SSE,153,2.0,7.0,43,0.00,,,0.01,,2013-09-16 20:22:00,
2013-09-16 16:43:00,91.0,66.0,27.22,SE,142,0.0,5.0,44,0.00,,,0.01,,2013-09-16 20:43:00,
2013-09-16 16:52:00,91.0,66.0,27.22,SSE,154,2.0,5.0,44,0.00,,,0.01,,2013-09-16 20:52:00,
2013-09-16 17:11:00,91.0,67.0,27.22,SSE,155,1.0,5.0,45,0.00,,,0.01,,2013-09-16 21:11:00,
2013-09-16 17:21:00,92.0,67.0,27.22,SSE,147,1.0,6.0,44,0.00,,,0.01,,2013-09-16 21:21:00,
2013-09-16 17:55:00,93.0,68.0,27.22,SSE,163,1.0,6.0,44,0.00,,,0.01,,2013-09-16 21:55:00,
2013-09-16 18:13:00,92.0,67.0,27.22,ESE,110,1.0,6.0,44,0.00,,,0.01,,2013-09-16 22:13:00,
2013-09-16 18:24:00,92.0,67.0,27.22,SSE,166,1.0,7.0,44,0.00,,,0.01,,2013-09-16 22:24:00,
2013-09-16 18:43:00,92.0,67.0,27.22,SE,138,0.0,3.0,44,0.00,,,0.01,,2013-09-16 22:43:00,
2013-09-16 18:53:00,92.0,67.0,27.22,SSE,147,1.0,3.0,44,0.00,,,0.01,,2013-09-16 22:53:00,
2013-09-16 19:12:00,92.0,67.0,27.22,SSE,149,1.0,6.0,44,0.00,,,0.01,,2013-09-16 23:12:00,
2013-09-16 19:22:00,92.0,68.0,27.22,SSE,157,2.0,7.0,45,0.00,,,0.01,,2013-09-16 23:22:00,
2013-09-16 19:52:00,91.0,67.0,27.22,SSE,151,1.0,5.0,46,0.00,,,0.01,,2013-09-16 23:52:00,
2013-09-16 20:11:00,91.0,67.0,28.35,SSE,150,0.0,3.0,46,0.00,,,0.01,,2013-09-17 00:11:00,
2013-09-16 20:21:00,91.0,68.0,28.35,SSE,150,0.0,3.0,47,0.00,,,0.01,,2013-09-17 00:21:00,
2013-09-16 20:42:00,90.0,67.0,29.78,SSE,149,0.0,2.0,47,0.00,,,0.01,,2013-09-17 00:42:00,
2013-09-16 20:52:00,90.0,67.0,29.92,SSE,150,0.0,1.0,47,0.00,,,0.01,,2013-09-17 00:52:00,
2013-09-16 21:11:00,89.0,67.0,29.90,SSE,153,1.0,3.0,48,0.00,,,0.01,,2013-09-17 01:11:00,
2013-09-16 21:21:00,89.0,67.0,29.96,SSE,150,0.0,3.0,49,0.00,,,0.01,,2013-09-17 01:21:00,
2013-09-16 21:42:00,89.0,67.0,29.92,SSE,160,1.0,2.0,49,0.00,,,0.01,,2013-09-17 01:42:00,
2013-09-16 21:52:00,89.0,68.0,29.93,SSE,160,0.0,3.0,50,0.00,,,0.01,,2013-09-17 01:52:00,
2013-09-16 22:11:00,88.0,68.0,29.96,SSE,160,0.0,1.0,51,0.00,,,0.01,,2013-09-17 02:11:00,
2013-09-16 22:22:00,88.0,68.0,29.90,SSE,160,0.0,0.0,51,0.00,,,0.01,,2013-09-17 02:22:00,
2013-09-16 22:42:00,87.0,67.0,30.01,SSE,160,0.0,0.0,52,0.00,,,0.01,,2013-09-17 02:42:00,
2013-09-16 22:52:00,87.0,67.0,29.98,SSE,160,0.0,0.0,52,0.00,,,0.01,,2013-09-17 02:52:00,
2013-09-16 23:11:00,86.0,67.0,29.99,SSE,160,0.0,0.0,54,0.00,,,0.01,,2013-09-17 03:11:00,
2013-09-16 23:23:00,86.0,68.0,30.02,SSE,160,0.0,0.0,55,0.00,,,0.01,,2013-09-17 03:23:00,
2013-09-16 23:45:00,85.0,68.0,30.03,SSE,160,0.0,0.0,56,0.00,,,0.01,,2013-09-17 03:45:00,
2013-09-16 23:54:00,85.0,68.0,30.03,SSE,160,0.0,0.0,57,0.00,,,0.01,,2013-09-17 03:54:00,